| time (UTC) | temp C | wind direction | speed KPH | gust KPH | rain 1hr cm | rain 24hr cm | rain mn cm | humidity % | barometer mb |
| 20260508003639 | 20 | 95 | 4.8 | 4.8 | 0.00 | 0.00 | 0.00 | 71 | 1013.0 |
| 20260508000638 | 20 | 95 | 4.8 | 4.8 | 0.00 | 0.00 | 0.00 | 73 | 1011.0 |
| 20260507233637 | 23 | 220 | 14.5 | 0.0 | 0.00 | 0.00 | 0.00 | 63 | 1011.0 |
| 20260507230636 | 23 | 220 | 14.5 | 0.0 | 0.00 | 0.00 | 0.00 | 67 | 1011.0 |
| 20260507223635 | 23 | 295 | 8.0 | 4.8 | 0.00 | 0.00 | 0.00 | 72 | 1010.0 |
| 20260507220634 | 23 | 295 | 8.0 | 4.8 | 0.00 | 0.00 | 0.00 | 72 | 1010.0 |
| 20260507213633 | 23 | 295 | 8.0 | 4.8 | 0.00 | 0.00 | 0.00 | 72 | 1009.0 |
| 20260507210632 | 24 | 295 | 8.0 | 4.8 | 0.00 | 0.00 | 0.00 | 72 | 1009.0 |
| 20260507203631 | 24 | 295 | 8.0 | 4.8 | 0.00 | 0.00 | 0.00 | 72 | 1009.0 |
| 20260507200630 | 24 | 295 | 8.0 | 4.8 | 0.00 | 0.00 | 0.00 | 72 | 1009.0 |
| 20260507193628 | 25 | 295 | 8.0 | 4.8 | 0.00 | 0.00 | 0.00 | 72 | 1009.0 |
| 20260507190627 | 25 | 295 | 8.0 | 4.8 | 0.00 | 0.00 | 0.00 | 72 | 1010.0 |
| 20260507183626 | 25 | 295 | 8.0 | 4.8 | 0.00 | 0.00 | 0.00 | 72 | 1010.0 |
| 20260507180625 | 25 | 295 | 8.0 | 4.8 | 0.00 | 0.00 | 0.00 | 72 | 1011.0 |
| 20260507173624 | 25 | 295 | 8.0 | 4.8 | 0.00 | 0.00 | 0.00 | 72 | 1012.0 |
| 20260507170624 | 25 | 295 | 8.0 | 4.8 | 0.00 | 0.00 | 0.00 | 72 | 1013.0 |
| 20260507163622 | 23 | 220 | 8.0 | 0.0 | 0.00 | 0.00 | 0.00 | 83 | 1013.0 |
| 20260507160621 | 23 | 299 | 8.0 | 4.8 | 0.00 | 0.00 | 0.00 | 83 | 1015.0 |
| 20260507153620 | 23 | 299 | 8.0 | 4.8 | 0.00 | 0.00 | 0.00 | 83 | 1015.0 |
| 20260507150619 | 22 | 299 | 8.0 | 4.8 | 0.00 | 0.00 | 0.00 | 83 | 1016.0 |
| 20260507143619 | 20 | 300 | 6.4 | 1.6 | 0.00 | 0.00 | 0.00 | 80 | 1015.0 |
| 20260507140618 | 20 | 300 | 6.4 | 1.6 | 0.00 | 0.00 | 0.00 | 80 | 1016.0 |
| 20260507133617 | 19 | 313 | 1.6 | 0.0 | 0.00 | 0.00 | 0.00 | 78 | 1016.0 |
| 20260507130616 | 19 | 313 | 3.2 | 0.0 | 0.00 | 0.00 | 0.00 | 77 | 1016.0 |
| 20260507123615 | 16 | 53 | 4.8 | 8.0 | 0.00 | 0.00 | 0.00 | 80 | 1015.0 |
| 20260507120614 | 16 | 53 | 4.8 | 8.0 | 0.00 | 0.00 | 0.00 | 80 | 1015.0 |
| 20260507113613 | 16 | 53 | 4.8 | 8.0 | 0.00 | 0.00 | 0.00 | 80 | 1015.0 |
| 20260507110612 | 16 | 53 | 4.8 | 8.0 | 0.00 | 0.00 | 0.00 | 80 | 1015.0 |
| 20260507103611 | 16 | 53 | 4.8 | 8.0 | 0.00 | 0.00 | 0.00 | 80 | 1015.0 |
| 20260507100610 | 16 | 53 | 4.8 | 8.0 | 0.00 | 0.00 | 0.00 | 80 | 1015.0 |
| 20260507093609 | 16 | 53 | 4.8 | 8.0 | 0.00 | 0.00 | 0.00 | 80 | 1015.0 |
| 20260507090608 | 16 | 53 | 4.8 | 8.0 | 0.00 | 0.00 | 0.00 | 80 | 1015.0 |
| 20260507083607 | 16 | 53 | 4.8 | 8.0 | 0.00 | 0.00 | 0.00 | 80 | 1015.0 |
| 20260507080607 | 16 | 53 | 4.8 | 8.0 | 0.00 | 0.00 | 0.00 | 80 | 1015.0 |
| 20260507073606 | 16 | 53 | 4.8 | 8.0 | 0.00 | 0.00 | 0.00 | 80 | 1015.0 |
| 20260507070605 | 16 | 53 | 4.8 | 8.0 | 0.00 | 0.00 | 0.00 | 80 | 1015.0 |
| 20260507063604 | 16 | 53 | 4.8 | 8.0 | 0.00 | 0.00 | 0.00 | 80 | 1015.0 |
| 20260507060603 | 16 | 53 | 4.8 | 8.0 | 0.00 | 0.00 | 0.00 | 80 | 1015.0 |
| 20260507053602 | 16 | 53 | 4.8 | 8.0 | 0.00 | 0.00 | 0.00 | 80 | 1015.0 |
| 20260507050601 | 16 | 53 | 4.8 | 8.0 | 0.00 | 0.00 | 0.00 | 80 | 1016.0 |
| 20260507043600 | 17 | 53 | 4.8 | 8.0 | 0.00 | 0.00 | 0.00 | 80 | 1016.0 |
| 20260507040557 | 17 | 53 | 4.8 | 8.0 | 0.00 | 0.00 | 0.00 | 80 | 1016.0 |
| 20260507033556 | 17 | 53 | 4.8 | 8.0 | 0.00 | 0.00 | 0.00 | 80 | 1016.0 |
| 20260507030554 | 17 | 53 | 4.8 | 8.0 | 0.00 | 0.00 | 0.00 | 80 | 1016.0 |
| 20260507023553 | 17 | 53 | 4.8 | 8.0 | 0.00 | 0.00 | 0.00 | 80 | 1015.0 |
| 20260507020551 | 18 | 53 | 4.8 | 8.0 | 0.00 | 0.00 | 0.00 | 80 | 1015.0 |
| 20260507013550 | 18 | 53 | 4.8 | 8.0 | 0.00 | 0.00 | 0.00 | 80 | 1014.0 |
| 20260507010549 | 18 | 53 | 4.8 | 8.0 | 0.00 | 0.00 | 0.00 | 80 | 1014.0 |